1507003200.2,38179,13.56,73746.0,4.21,-1.95,-1.33,0,*72
1507003201.44,38180,13.56,73744.3,4.19,-1.95,-1.35,0,*79
1507003202.68,38181,13.56,73742.0,4.21,-1.91,-1.21,0,*72
1507003203.91,38182,13.56,73740.0,4.21,-1.91,-1.25,0,*75
1507003205.15,38183,13.56,73746.3,4.21,-1.91,-1.33,0,*73
1507003206.38,38184,13.56,73746.3,4.21,-1.95,-1.33,0,*70
1507003207.61,38185,13.56,73746.8,4.19,-1.95,-1.39,0,*70
1507003208.88,38186,13.56,73744.0,4.21,-1.91,-1.35,0,*70
1507003210.15,38187,13.56,73748.3,4.21,-1.99,-1.35,0,*79
1507003211.39,38188,13.56,73742.8,4.21,-1.99,-1.33,0,*70
1507003212.63,38189,13.56,73746.0,4.19,-1.95,-1.39,0,*7C
1507003213.9,38190,13.56,73744.8,4.21,-1.99,-1.43,0,*7E
1507003215.16,38191,13.56,73740.3,4.21,-1.95,-1.35,0,*72
1507003216.43,38192,13.56,73740.3,4.21,-1.99,-1.43,0,*7C
1507003217.67,38193,13.56,73742.5,4.19,-1.87,-1.47,0,*7D
1507003218.91,38194,13.56,73742.5,4.19,-2.03,-1.47,0,*75
1507003220.15,38195,13.56,73744.8,4.19,-1.95,-1.39,0,*71
1507003221.41,38196,13.56,73746.8,4.21,-1.95,-1.43,0,*74
1507003222.67,38197,13.56,73744.8,4.21,-1.95,-1.43,0,*75
1507003223.94,38198,13.56,73742.8,4.21,-1.95,-1.35,0,*7B
1507003225.2,38199,13.56,73736.8,4.21,-1.95,-1.35,0,*7A
1507003226.46,38200,13.56,73740.8,4.21,-1.95,-1.43,0,*78
1507003227.67,38201,13.56,73744.0,4.21,-2.19,-1.55,0,*79
1507003228.88,38202,13.56,73750.8,4.21,-2.15,-1.55,0,*76
1507003230.15,38203,13.56,73750.3,4.21,-2.07,-1.47,0,*77
1507003231.39,38204,13.56,73748.0,4.19,-1.99,-1.47,0,*7F
1507003232.66,38205,13.56,73750.5,4.21,-1.99,-1.43,0,*71
1507003233.9,38206,13.56,73748.0,4.19,-1.91,-1.35,0,*70
1507003235.16,38207,13.56,73750.3,4.21,-1.91,-1.35,0,*7A
1507003236.43,38208,13.56,73748.3,4.21,-1.95,-1.35,0,*71
1507003237.67,38209,13.56,73748.3,4.19,-1.87,-1.39,0,*74
1507003238.91,38210,13.56,73746.0,4.19,-1.83,-1.35,0,*74
1507003240.17,38211,13.56,73746.5,4.21,-1.83,-1.35,0,*7E
1507003241.41,38212,13.56,73746.3,4.19,-1.95,-1.39,0,*7D
1507003242.63,38213,13.56,73748.0,4.19,-2.03,-1.51,0,*7E
1507003243.87,38214,13.56,73750.8,4.21,-2.07,-1.51,0,*76
1507003245.11,38215,13.56,73746.0,4.19,-1.99,-1.47,0,*7F
1507003246.33,38216,13.56,73746.8,4.19,-1.99,-1.51,0,*7B
1507003247.54,38217,13.56,73746.5,4.19,-2.03,-1.51,0,*7A
1507003248.76,38218,13.56,73748.0,4.19,-2.11,-1.63,0,*77
1507003249.94,38219,13.56,73754.0,4.19,-2.23,-1.63,0,*77
1507003251.13,38220,13.56,73748.5,4.19,-2.23,-1.63,0,*7D
1507003252.34,38221,13.56,73744.3,4.19,-2.11,-1.59,0,*74
1507003253.53,38222,13.56,73746.3,4.19,-2.15,-1.63,0,*7A
1507003254.74,38223,13.56,73744.8,4.19,-2.11,-1.59,0,*76
1507003255.95,38224,13.56,73750.8,4.19,-2.03,-1.59,0,*72
1507003257.19,38225,13.56,73746.5,4.17,-2.03,-1.59,0,*7D
1507003258.44,38226,13.56,73748.3,4.17,-2.03,-1.59,0,*7E
1507003259.68,38227,13.56,73746.3,4.13,-2.07,-1.55,0,*73
1507003260.89,38228,13.56,73748.3,4.17,-2.15,-1.63,0,*7E
1507003262.14,38229,13.56,73752.0,4.17,-2.11,-1.63,0,*7B
1507003263.35,38230,13.56,73756.0,4.17,-2.15,-1.59,0,*7E
1507003264.56,38231,13.56,73758.3,4.17,-2.15,-1.51,0,*77
1507003265.81,38232,13.56,73756.8,4.17,-2.11,-1.51,0,*70
1507003267.06,38233,13.56,73754.0,4.17,-1.99,-1.55,0,*76
1507003268.3,38234,13.56,73754.3,4.13,-2.07,-1.55,0,*71
1507003269.57,38235,13.56,73750.5,4.17,-2.03,-1.47,0,*73
1507003270.83,38236,13.56,73746.3,4.13,-1.91,-1.39,0,*75
1507003272.1,38237,13.56,73742.8,4.13,-1.91,-1.39,0,*74
1507003273.36,38238,13.56,73736.5,4.17,-1.87,-1.35,0,*74
1507003274.6,38239,13.56,73738.3,4.13,-1.79,-1.39,0,*7C
1507003275.82,38240,13.56,73734.0,4.17,-1.63,-1.25,0,*70
1507003277.03,38241,13.56,73732.8,4.17,-1.63,-1.25,0,*71
1507003278.24,38242,13.56,73742.8,4.17,-1.71,-1.25,0,*71
1507003279.45,38243,13.56,73732.8,4.17,-1.63,-1.25,0,*73
1507003280.66,38244,13.56,73742.0,4.17,-1.63,-1.25,0,*74
1507003281.88,38245,13.56,73750.8,4.17,-1.63,-1.21,0,*71
1507003283.09,38246,13.56,73754.8,4.17,-1.59,-1.21,0,*7B
1507003284.32,38247,13.56,73748.5,4.17,-1.59,-1.13,0,*7B
1507003285.56,38248,13.56,73744.8,4.17,-1.51,-1.01,0,*7F
1507003286.82,38249,13.56,73744.8,4.17,-1.47,-1.01,0,*79
1507003288.09,38250,13.56,73734.0,4.17,-1.47,-1.01,0,*71
1507003289.35,38251,13.56,73726.5,4.17,-1.39,-0.97,0,*47
1507003290.58,38252,13.56,73734.8,4.19,-1.47,-0.97,0,*43
1507003291.82,38253,13.56,73726.5,4.19,-1.47,-1.01,0,*7C
1507003293.08,38254,13.56,73718.8,4.21,-1.43,-0.97,0,*4A
1507003294.31,38255,13.56,73710.3,4.19,-1.47,-1.01,0,*7A
1507003295.5,38256,13.56,73716.5,4.19,-1.59,-1.21,0,*74
1507003296.69,38257,13.56,73712.0,4.19,-1.63,-1.21,0,*7C
1507003297.9,38258,13.56,73728.5,4.21,-1.55,-1.17,0,*78
1507003299.08,38259,13.56,73726.5,4.19,-1.51,-1.21,0,*73
1507003300.28,38260,13.56,73734.5,4.19,-1.51,-1.13,0,*78
1507003301.47,38261,13.56,73714.0,4.19,-1.59,-1.21,0,*70
1507003302.68,38262,13.56,73714.5,4.21,-1.59,-1.21,0,*78
1507003303.9,38263,13.56,73730.5,4.19,-1.71,-1.35,0,*7D
1507003305.11,38264,13.56,73728.5,4.21,-1.79,-1.25,0,*78
1507003306.31,38265,13.56,73724.5,4.21,-1.79,-1.33,0,*7E
1507003307.53,38266,13.56,73718.8,4.21,-1.71,-1.25,0,*72
1507003308.74,38267,13.56,73718.0,4.21,-1.71,-1.25,0,*73
1507003309.98,38268,13.56,73720.3,4.21,-1.79,-1.35,0,*75
1507003311.25,38269,13.56,73722.8,4.21,-1.83,-1.47,0,*74
1507003312.46,38270,13.56,73726.3,4.21,-1.79,-1.25,0,*7D
1507003313.64,38271,13.56,73730.3,4.19,-1.63,-1.25,0,*7C
1507003314.85,38272,13.56,73730.5,4.21,-1.59,-1.21,0,*79
1507003316.06,38273,13.56,73724.8,4.21,-1.79,-1.25,0,*7E
1507003317.27,38274,13.56,73732.5,4.21,-1.67,-1.25,0,*76
1507003318.47,38275,13.56,73732.5,4.21,-1.67,-1.25,0,*77
1507003319.65,38276,13.56,73732.8,4.19,-1.63,-1.25,0,*7B
1507003320.9,38277,13.56,73736.3,4.19,-1.83,-1.39,0,*79
1507003322.14,38278,13.56,73736.8,4.19,-1.83,-1.39,0,*76
1507003323.35,38279,13.56,73738.3,4.21,-1.71,-1.33,0,*7B
1507003324.54,38280,13.56,73742.8,4.19,-1.63,-1.29,0,*7E
1507003325.71,38281,13.56,73744.8,4.19,-1.59,-1.25,0,*7A
1507003326.89,38282,13.56,73736.5,4.19,-1.51,-1.25,0,*71
1507003328.07,38283,13.56,73740.8,4.19,-1.51,-1.25,0,*70
1507003329.25,38284,13.56,73736.5,4.19,-1.51,-1.21,0,*73
1507003330.49,38285,13.56,73734.8,4.19,-1.39,-1.09,0,*76
1507003331.73,38286,13.56,73744.8,4.19,-1.47,-1.09,0,*7C
1507003332.97,38287,13.56,73732.8,4.19,-1.39,-1.01,0,*7C
1507003334.2,38288,13.56,73738.8,4.19,-1.47,-1.09,0,*72
1507003335.44,38289,13.56,73736.8,4.19,-1.43,-0.97,0,*41
1507003336.68,38290,13.56,73736.5,4.21,-1.47,-1.17,0,*7F
1507003337.94,38291,13.56,73732.3,4.21,-1.43,-1.05,0,*79
1507003339.21,38292,13.56,73732.3,4.21,-1.35,-1.05,0,*7B
1507003340.44,38293,13.56,73742.0,4.19,-1.43,-1.13,0,*77
1507003341.7,38294,13.56,73748.0,4.21,-1.43,-1.09,0,*70
1507003342.92,38295,13.56,73752.8,4.19,-1.47,-1.21,0,*74
1507003344.16,38296,13.56,73756.8,4.21,-1.47,-1.17,0,*79
1507003345.4,38297,13.56,73754.0,4.21,-1.47,-1.17,0,*78
1507003346.64,38298,13.56,73754.0,4.21,-1.47,-1.21,0,*72
1507003347.88,38299,13.56,73758.0,4.21,-1.47,-1.17,0,*76
1507003349.12,38300,13.56,73760.3,4.23,-1.47,-1.05,0,*76
1507003350.32,38301,13.56,73750.8,4.23,-1.25,-0.85,0,*4A
1507003351.52,38302,13.56,73742.0,4.23,-1.17,-0.73,0,*41
1507003352.71,38303,13.63,73730.3,4.23,-1.17,-0.73,0,*40
1507003353.94,38304,13.56,73726.5,4.25,-1.05,-0.69,0,*49
1507003355.18,38305,13.56,73726.3,4.25,-1.13,-0.77,0,*40
1507003356.37,38306,13.56,73728.0,4.23,-1.17,-0.81,0,*48
1507003357.55,38307,13.56,73734.3,4.23,-1.21,-0.81,0,*4C
1507003358.79,38308,13.56,73732.8,4.25,-1.29,-1.01,0,*74
1507003360.05,38309,13.56,73738.3,4.25,-1.39,-1.01,0,*74
1507003361.31,38310,13.56,73740.5,4.25,-1.39,-1.13,0,*7F
1507003362.57,38311,13.56,73736.3,4.25,-1.43,-1.13,0,*73
1507003363.83,38312,13.56,73736.5,4.25,-1.43,-1.13,0,*70
1507003365.04,38313,13.56,73742.0,4.25,-1.55,-1.21,0,*77
1507003366.27,38314,13.56,73742.5,4.25,-1.67,-1.39,0,*78
1507003367.51,38315,13.56,73744.8,4.25,-1.67,-1.39,0,*79
1507003368.72,38316,13.56,73746.0,4.25,-1.55,-1.29,0,*7A
1507003369.93,38317,13.56,73744.3,4.23,-1.47,-1.17,0,*73
1507003371.14,38318,13.56,73736.5,4.25,-1.51,-1.29,0,*70
1507003372.37,38319,13.56,73730.3,4.25,-1.43,-1.17,0,*7F
1507003373.58,38320,13.56,73736.5,4.25,-1.55,-1.21,0,*77
1507003374.77,38321,13.56,73740.5,4.23,-1.55,-1.33,0,*73
1507003375.97,38322,13.56,73750.8,4.25,-1.63,-1.33,0,*73
1507003377.19,38323,13.56,73744.8,4.23,-1.71,-1.43,0,*70
1507003378.4,38324,13.56,73746.5,4.25,-1.55,-1.29,0,*7B
1507003379.6,38325,13.56,73746.8,4.25,-1.63,-1.33,0,*74
1507003380.81,38326,13.56,73744.8,4.23,-1.59,-1.35,0,*7E
1507003381.99,38327,13.56,73748.8,4.23,-1.67,-1.33,0,*74
1507003383.2,38328,13.56,73746.3,4.25,-1.55,-1.29,0,*77
1507003384.41,38329,13.56,73746.8,4.25,-1.55,-1.33,0,*7D
1507003385.59,38330,13.56,73746.8,4.23,-1.55,-1.29,0,*78
1507003386.82,38331,13.56,73746.3,4.25,-1.63,-1.39,0,*7B
1507003388.04,38332,13.56,73746.3,4.23,-1.67,-1.35,0,*76
1507003389.27,38333,13.56,73748.8,4.25,-1.63,-1.39,0,*79
1507003390.49,38334,13.56,73750.0,4.23,-1.71,-1.47,0,*72
1507003391.7,38335,13.56,73746.3,4.23,-1.79,-1.47,0,*7B
1507003392.92,38336,13.56,73748.3,4.23,-1.71,-1.47,0,*70
1507003394.13,38337,13.56,73748.5,4.23,-1.79,-1.47,0,*79
1507003395.34,38338,13.56,73748.0,4.23,-1.79,-1.47,0,*76
1507003396.56,38339,13.56,73748.0,4.23,-1.71,-1.47,0,*7F
1507003397.8,38340,13.56,73746.5,4.23,-1.83,-1.47,0,*7C
1507003399.02,38341,13.56,73750.0,4.23,-1.71,-1.47,0,*70
1507003400.26,38342,13.56,73748.5,4.23,-1.83,-1.47,0,*7E
1507003401.52,38343,13.56,73744.5,4.25,-1.87,-1.43,0,*79
1507003402.73,38344,13.56,73746.3,4.23,-1.95,-1.59,0,*70
1507003403.97,38345,13.56,73750.5,4.21,-1.91,-1.55,0,*7B
1507003405.2,38346,13.56,73754.0,4.21,-1.95,-1.59,0,*70
1507003406.44,38347,13.56,73750.3,4.21,-1.83,-1.55,0,*7A
1507003407.65,38348,13.56,73748.5,4.19,-1.83,-1.51,0,*7A
1507003408.86,38349,13.56,73748.0,4.19,-1.95,-1.63,0,*7D
1507003410.1,38350,13.56,73754.8,4.21,-1.95,-1.67,0,*7A
1507003411.32,38351,13.56,73756.8,4.19,-1.99,-1.63,0,*78
1507003412.56,38352,13.56,73752.3,4.21,-1.83,-1.55,0,*7E
1507003413.77,38353,13.56,73752.5,4.19,-1.87,-1.51,0,*74
1507003415.02,38354,13.56,73750.5,4.21,-1.71,-1.43,0,*72
1507003416.28,38355,13.56,73748.0,4.21,-1.91,-1.47,0,*79
1507003417.49,38356,13.56,73754.8,4.19,-1.95,-1.63,0,*73
1507003418.7,38357,13.56,73760.3,4.19,-1.87,-1.59,0,*78
1507003419.89,38358,13.56,73762.5,4.19,-1.75,-1.51,0,*72
1507003421.11,38359,13.56,73762.3,4.19,-1.71,-1.39,0,*79
1507003422.33,38360,13.56,73754.3,4.19,-1.71,-1.35,0,*7F
1507003423.53,38361,13.56,73748.5,4.19,-1.51,-1.13,0,*78
1507003424.73,38362,13.56,73748.0,4.19,-1.51,-1.13,0,*7B
1507003425.91,38363,13.56,73744.8,4.19,-1.51,-1.21,0,*7B
1507003427.13,38364,13.56,73744.8,4.19,-1.47,-1.17,0,*7E
1507003428.34,38365,13.56,73748.8,4.19,-1.59,-1.39,0,*7C
1507003429.55,38366,13.56,73754.8,4.19,-1.63,-1.35,0,*7A
1507003430.76,38367,13.56,73756.5,4.19,-1.63,-1.47,0,*7E
1507003431.97,38368,13.56,73760.8,4.19,-1.63,-1.39,0,*78
1507003433.18,38369,13.56,73756.8,4.19,-1.63,-1.35,0,*75
1507003434.39,38370,13.56,73754.8,4.21,-1.59,-1.33,0,*79
1507003435.6,38371,13.56,73754.5,4.19,-1.63,-1.47,0,*79
1507003436.81,38372,13.56,73752.5,4.19,-1.47,-1.25,0,*78
1507003438.04,38373,13.56,73750.0,4.19,-1.47,-1.13,0,*7C
1507003439.31,38374,13.56,73752.8,4.17,-1.47,-1.13,0,*75
1507003440.57,38375,13.56,73744.8,4.17,-1.35,-1.09,0,*7A
1507003441.75,38376,13.56,73742.5,4.19,-1.51,-1.29,0,*77
1507003442.96,38377,13.56,73746.0,4.19,-1.51,-1.39,0,*77
1507003444.17,38378,13.56,73746.8,4.19,-1.59,-1.35,0,*7C
1507003445.35,38379,13.56,73750.3,4.19,-1.51,-1.29,0,*78
1507003446.54,38380,13.56,73750.8,4.19,-1.71,-1.51,0,*73
1507003447.75,38381,13.56,73754.5,4.17,-1.75,-1.59,0,*70
1507003448.99,38382,13.56,73748.8,4.17,-1.63,-1.47,0,*7B
1507003450.2,38383,13.56,73752.0,4.19,-1.59,-1.35,0,*78
1507003451.45,38384,13.56,73754.8,4.17,-1.39,-1.21,0,*72
1507003452.72,38385,13.56,73750.3,4.17,-1.39,-1.13,0,*72
1507003453.96,38386,13.56,73736.5,4.17,-1.21,-1.01,0,*7B
1507003455.17,38387,13.56,73734.5,4.19,-1.29,-0.97,0,*42
1507003456.35,38388,13.56,73744.8,4.19,-1.51,-1.29,0,*76
1507003457.53,38389,13.56,73736.0,4.19,-1.51,-1.29,0,*77
1507003458.74,38390,13.56,73742.3,4.19,-1.47,-1.25,0,*74
1507003459.95,38391,13.56,73746.3,4.19,-1.47,-1.29,0,*79
1507003461.17,38392,13.56,73744.0,4.19,-1.47,-1.29,0,*7A
1507003462.43,38393,13.56,73750.8,4.21,-1.47,-1.35,0,*7D
1507003463.64,38394,13.56,73746.5,4.19,-1.51,-1.35,0,*76
1507003464.9,38395,13.56,73740.5,4.21,-1.35,-1.09,0,*71
1507003466.14,38396,13.56,73740.5,4.21,-1.43,-1.17,0,*7C
1507003467.36,38397,13.56,73744.0,4.19,-1.47,-1.21,0,*77
1507003468.57,38398,13.56,73750.5,4.19,-1.47,-1.25,0,*7C
1507003469.78,38399,13.56,73752.8,4.19,-1.59,-1.39,0,*7F
1507003470.99,38400,13.56,73754.5,4.19,-1.59,-1.35,0,*74
1507003472.22,38401,13.56,73752.8,4.19,-1.35,-1.09,0,*70
1507003473.44,38402,13.56,73746.5,4.21,-1.33,-1.21,0,*74
1507003474.66,38403,13.56,73750.3,4.19,-1.47,-1.21,0,*7D
1507003475.87,38404,13.56,73742.3,4.19,-1.29,-1.05,0,*74
1507003477.08,38405,13.56,73744.0,4.19,-1.29,-1.09,0,*79
1507003478.32,38406,13.56,73748.3,4.21,-1.35,-1.17,0,*73
1507003479.54,38407,13.56,73748.0,4.19,-1.47,-1.21,0,*79
1507003480.8,38408,13.56,73746.5,4.21,-1.35,-1.09,0,*72
1507003482.04,38409,13.56,73748.3,4.21,-1.35,-1.17,0,*7C
1507003483.28,38410,13.56,73754.5,4.21,-1.43,-1.21,0,*70
1507003484.49,38411,13.56,73752.3,4.19,-1.47,-1.29,0,*76
1507003485.7,38412,13.56,73746.3,4.19,-1.47,-1.25,0,*79
1507003486.92,38413,13.56,73744.8,4.19,-1.39,-1.25,0,*71
1507003488.16,38414,13.56,73740.3,4.21,-1.43,-1.21,0,*74
1507003489.4,38415,13.56,73734.8,4.21,-1.35,-1.17,0,*71
1507003490.64,38416,13.56,73734.5,4.21,-1.35,-1.17,0,*72
1507003491.85,38417,13.56,73734.5,4.23,-1.43,-1.17,0,*70
1507003493.06,38418,13.56,73738.0,4.23,-1.43,-1.21,0,*7A
1507003494.25,38419,13.56,73742.5,4.23,-1.55,-1.25,0,*78
1507003495.46,38420,13.56,73744.3,4.23,-1.67,-1.43,0,*73
1507003496.69,38421,13.56,73748.3,4.21,-1.59,-1.43,0,*7D
1507003497.9,38422,13.56,73748.8,4.19,-1.63,-1.35,0,*7D
1507003499.08,38423,13.56,73752.8,4.19,-1.51,-1.25,0,*7C
1507003500.32,38424,13.56,73754.3,4.21,-1.43,-1.17,0,*72
1507003501.56,38425,13.56,73748.5,4.21,-1.43,-1.21,0,*76
1507003502.77,38426,13.56,73746.3,4.19,-1.47,-1.25,0,*7E
1507003504.02,38427,13.56,73746.0,4.21,-1.43,-1.21,0,*74
1507003505.26,38428,13.56,73740.3,4.21,-1.43,-1.21,0,*7B
1507003506.5,38429,13.56,73744.0,4.21,-1.47,-1.21,0,*7E
1507003507.74,38430,13.56,73746.0,4.21,-1.47,-1.17,0,*73
1507003508.95,38431,13.56,73740.8,4.21,-1.55,-1.25,0,*70
1507003510.19,38432,13.56,73742.5,4.21,-1.43,-1.17,0,*75
1507003511.43,38433,13.56,73746.0,4.21,-1.43,-1.25,0,*75
1507003512.64,38434,13.56,73744.0,4.23,-1.43,-1.21,0,*74
1507003513.86,38435,13.56,73742.8,4.19,-1.43,-1.21,0,*7C
1507003515.1,38436,13.56,73740.0,4.21,-1.35,-1.21,0,*75
1507003516.31,38437,13.56,73740.3,4.19,-1.47,-1.29,0,*72
1507003517.56,38438,13.56,73738.3,4.21,-1.43,-1.21,0,*7A
1507003518.8,38439,13.56,73736.3,4.21,-1.43,-1.21,0,*7B
1507003520.01,38440,13.56,73736.8,4.19,-1.47,-1.25,0,*7E
1507003521.25,38441,13.56,73740.3,4.21,-1.43,-1.25,0,*70
1507003522.48,38442,13.56,73740.5,4.21,-1.43,-1.25,0,*73
1507003523.72,38443,13.56,73742.0,4.21,-1.43,-1.25,0,*72
1507003524.96,38444,13.56,73744.5,4.19,-1.47,-1.35,0,*7B
1507003526.2,38445,13.56,73746.3,4.21,-1.43,-1.25,0,*74
1507003527.43,38446,13.56,73748.3,4.21,-1.43,-1.25,0,*77
1507003528.64,38447,13.56,73740.0,4.19,-1.47,-1.25,0,*79
1507003529.89,38448,13.56,73740.5,4.21,-1.43,-1.21,0,*7D
1507003531.12,38449,13.56,73750.5,4.21,-1.43,-1.25,0,*78
1507003532.36,38450,13.56,73742.3,4.21,-1.35,-1.17,0,*70
1507003533.57,38451,13.56,73734.5,4.19,-1.39,-1.25,0,*77
1507003534.81,38452,13.56,73734.5,4.21,-1.43,-1.25,0,*72
1507003536.05,38453,13.56,73732.5,4.21,-1.47,-1.21,0,*73
1507003537.29,38454,13.56,73730.3,4.21,-1.47,-1.25,0,*70
1507003538.5,38455,13.56,73734.8,4.19,-1.59,-1.47,0,*71
1507003539.74,38456,13.56,73734.3,4.21,-1.67,-1.47,0,*74
1507003540.98,38457,13.56,73734.8,4.21,-1.71,-1.47,0,*72
1507003542.22,38458,13.56,73742.3,4.21,-1.79,-1.47,0,*75
1507003543.41,38459,13.56,73740.8,4.19,-1.75,-1.51,0,*74
1507003544.59,38460,13.56,73748.5,4.19,-1.75,-1.51,0,*7E
1507003545.8,38461,13.56,73748.8,4.19,-1.63,-1.39,0,*76
1507003547.02,38462,13.56,73752.8,4.19,-1.63,-1.35,0,*79
1507003548.26,38463,13.56,73742.3,4.21,-1.47,-1.21,0,*70
1507003549.5,38464,13.56,73746.5,4.21,-1.47,-1.25,0,*73
1507003550.67,38465,13.56,73738.8,4.19,-1.51,-1.25,0,*7E
1507003551.88,38466,13.56,73724.8,4.19,-1.47,-1.25,0,*7A
1507003553.13,38467,13.56,73722.8,4.21,-1.47,-1.17,0,*71
1507003554.3,38468,13.56,73714.0,4.19,-1.59,-1.25,0,*7B
1507003555.54,38469,13.56,73728.0,4.21,-1.79,-1.47,0,*77
1507003556.78,38470,13.56,73728.0,4.21,-1.67,-1.35,0,*75
1507003557.99,38471,13.56,73734.3,4.19,-1.63,-1.35,0,*7B
1507003559.2,38472,13.56,73736.5,4.19,-1.63,-1.35,0,*78
1507003560.39,38473,13.56,73738.3,4.19,-1.63,-1.29,0,*74
1507003561.57,38474,13.56,73744.8,4.19,-1.51,-1.25,0,*7E
1507003562.81,38475,13.56,73740.0,4.21,-1.47,-1.17,0,*72
1507003564.01,38476,13.56,73740.8,4.19,-1.51,-1.13,0,*79
1507003565.19,38477,13.56,73742.5,4.19,-1.51,-1.21,0,*79
1507003566.41,38478,13.56,73742.3,4.19,-1.47,-1.21,0,*71
1507003567.59,38479,13.56,73738.5,4.19,-1.51,-1.25,0,*73
1507003568.83,38480,13.56,73740.8,4.21,-1.47,-1.21,0,*7D
1507003570.02,38481,13.56,73752.5,4.19,-1.51,-1.21,0,*70
1507003571.25,38482,13.56,73754.8,4.21,-1.47,-1.25,0,*7B
1507003572.49,38483,13.56,73748.0,4.19,-1.47,-1.13,0,*74
1507003573.72,38484,13.56,73744.8,4.19,-1.35,-1.01,0,*75
1507003574.96,38485,13.56,73744.8,4.21,-1.25,-1.05,0,*7A
1507003576.21,38486,13.56,73738.0,4.21,-1.09,-0.85,0,*4E
1507003577.45,38487,13.56,73734.3,4.21,-1.17,-0.93,0,*47
1507003578.69,38488,13.56,73736.5,4.21,-1.33,-1.05,0,*70
1507003579.93,38489,13.56,73744.5,4.21,-1.33,-1.09,0,*7D
1507003581.15,38490,13.56,73744.3,4.23,-1.33,-1.05,0,*7B
1507003582.36,38491,13.56,73746.5,4.23,-1.33,-0.97,0,*40
1507003583.56,38492,13.56,73744.8,4.23,-1.25,-0.97,0,*44
1507003584.77,38493,13.56,73748.8,4.23,-1.33,-1.05,0,*78
1507003586.01,38494,13.56,73750.3,4.21,-1.33,-1.09,0,*71
1507003587.25,38495,13.56,73744.8,4.21,-1.35,-1.17,0,*79
1507003588.49,38496,13.56,73746.5,4.21,-1.35,-1.17,0,*7A
1507003589.7,38497,13.56,73742.0,4.23,-1.43,-1.17,0,*78
1507003590.91,38498,13.56,73746.0,4.23,-1.43,-1.25,0,*76
1507003592.09,38499,13.56,73744.8,4.23,-1.55,-1.33,0,*77
1507003593.3,38500,13.56,73744.3,4.23,-1.59,-1.35,0,*7C
1507003594.51,38501,13.56,73738.8,4.21,-1.55,-1.25,0,*72
1507003595.72,38502,13.56,73744.5,4.23,-1.47,-1.25,0,*70
1507003596.9,38503,13.56,73744.0,4.23,-1.55,-1.25,0,*72
1507003598.11,38504,13.56,73748.8,4.23,-1.59,-1.35,0,*78
1507003599.32,38505,13.56,73748.0,4.23,-1.67,-1.35,0,*74
1507003600.56,38506,13.56,73756.8,4.21,-1.67,-1.43,0,*74
1507003601.77,38507,13.56,73748.0,4.19,-1.59,-1.35,0,*72
1507003603.01,38508,13.56,73744.8,4.21,-1.47,-1.21,0,*7C
1507003604.25,38509,13.56,73746.3,4.21,-1.43,-1.25,0,*7D
1507003605.46,38510,13.56,73748.8,4.19,-1.83,-1.51,0,*71
1507003606.69,38511,13.56,73748.3,4.21,-1.95,-1.59,0,*74
1507003607.93,38512,13.56,73748.5,4.21,-1.55,-1.35,0,*71
1507003609.12,38513,13.56,73746.3,4.19,-1.75,-1.63,0,*7A
1507003610.31,38514,13.56,73750.3,4.19,-1.71,-1.51,0,*78
1507003611.55,38515,13.56,73752.3,4.19,-1.83,-1.47,0,*73
1507003612.77,38516,13.56,73750.0,4.19,-1.71,-1.47,0,*7D
1507003613.99,38517,13.56,73750.3,4.19,-1.71,-1.39,0,*75
1507003615.23,38518,13.56,73746.8,4.21,-1.47,-1.21,0,*7D
1507003616.47,38519,13.56,73736.0,4.19,-1.47,-1.13,0,*76
1507003617.71,38520,13.56,73730.8,4.21,-1.43,-1.17,0,*77
1507003618.95,38521,13.56,73726.5,4.21,-1.47,-1.21,0,*77
1507003620.16,38522,13.56,73720.3,4.19,-1.63,-1.39,0,*70
1507003621.37,38523,13.56,73720.3,4.19,-1.59,-1.35,0,*74
1507003622.58,38524,13.56,73726.8,4.19,-1.63,-1.39,0,*76
1507003623.77,38525,13.56,73722.3,4.19,-1.75,-1.51,0,*7E
1507003624.98,38526,13.56,73726.8,4.19,-1.63,-1.39,0,*74
1507003626.2,38527,13.56,73730.3,4.19,-1.71,-1.35,0,*7A
1507003627.38,38528,13.56,73728.3,4.19,-1.51,-1.29,0,*7A
1507003628.56,38529,13.56,73734.8,4.19,-1.51,-1.25,0,*77
1507003629.74,38530,13.56,73732.5,4.19,-1.51,-1.29,0,*73
1507003630.92,38531,13.56,73732.5,4.19,-1.51,-1.25,0,*7E
1507003632.1,38532,13.56,73736.0,4.19,-1.51,-1.25,0,*7D
1507003633.31,38533,13.56,73738.5,4.21,-1.55,-1.21,0,*77
1507003634.49,38534,13.56,73736.3,4.19,-1.59,-1.29,0,*7F
1507003635.67,38535,13.56,73732.5,4.19,-1.51,-1.25,0,*7A
1507003636.85,38536,13.56,73732.5,4.19,-1.51,-1.29,0,*75
1507003638.03,38537,13.56,73746.5,4.19,-1.51,-1.25,0,*78
1507003639.25,38538,13.56,73750.0,4.19,-1.47,-1.21,0,*74
1507003640.42,38539,13.56,73738.8,4.19,-1.59,-1.25,0,*7E
1507003641.6,38540,13.56,73742.0,4.19,-1.51,-1.25,0,*78
1507003642.78,38541,13.56,73742.5,4.19,-1.51,-1.25,0,*79
1507003643.96,38542,13.56,73740.8,4.19,-1.59,-1.29,0,*7E
1507003645.17,38543,13.56,73748.5,4.17,-1.51,-1.25,0,*75
1507003646.4,38544,13.56,73742.0,4.17,-1.51,-1.13,0,*77
1507003647.58,38545,13.56,73744.5,4.19,-1.51,-1.25,0,*7D
1507003648.79,38546,13.56,73756.3,4.21,-1.55,-1.17,0,*70
1507003649.97,38547,13.56,73756.5,4.19,-1.51,-1.21,0,*7B
1507003651.21,38548,13.56,73762.3,4.19,-1.47,-1.09,0,*79
1507003652.44,38549,13.56,73762.0,4.19,-1.47,-1.09,0,*78
1507003653.68,38550,13.56,73750.0,4.19,-1.47,-1.09,0,*70
1507003654.92,38551,13.56,73740.3,4.19,-1.39,-1.13,0,*73
1507003656.15,38552,13.56,73740.8,4.19,-1.47,-1.13,0,*79
1507003657.39,38553,13.56,73744.3,4.21,-1.47,-1.17,0,*77
1507003658.6,38554,13.56,73756.5,4.21,-1.55,-1.25,0,*72
1507003659.78,38555,13.56,73760.8,4.19,-1.63,-1.29,0,*71
1507003660.96,38556,13.56,73750.5,4.19,-1.51,-1.25,0,*7F
1507003662.15,38557,13.56,73748.5,4.19,-1.51,-1.21,0,*7A
1507003663.36,38558,13.56,73754.5,4.19,-1.75,-1.39,0,*7A
1507003664.57,38559,13.56,73746.8,4.21,-1.55,-1.17,0,*7E
1507003665.75,38560,13.56,73736.8,4.19,-1.51,-1.21,0,*7E
1507003666.96,38561,13.56,73736.8,4.19,-1.51,-1.13,0,*7E
1507003668.13,38562,13.56,73734.0,4.19,-1.59,-1.25,0,*70
1507003669.34,38563,13.56,73728.3,4.19,-1.51,-1.13,0,*7C
1507003670.55,38564,13.56,73730.5,4.19,-1.47,-1.21,0,*7D
1507003671.76,38565,13.56,73724.5,4.17,-1.59,-1.29,0,*75
1507003672.97,38566,13.56,73728.8,4.17,-1.59,-1.29,0,*76
1507003674.15,38567,13.56,73724.5,4.19,-1.59,-1.25,0,*75
1507003675.35,38568,13.56,73726.0,4.19,-1.51,-1.13,0,*77
1507003676.59,38569,13.56,73724.8,4.19,-1.47,-1.13,0,*71
1507003677.8,38570,13.56,73730.5,4.19,-1.47,-1.21,0,*78
1507003679.02,38571,13.56,73724.8,4.19,-1.47,-1.21,0,*79
1507003680.24,38572,13.56,73726.8,4.19,-1.47,-1.21,0,*7A
1507003681.45,38573,13.56,73728.8,4.19,-1.47,-1.21,0,*7B
1507003682.7,38574,13.56,73726.3,4.17,-1.39,-1.21,0,*7B
1507003683.95,38575,13.56,73730.3,4.13,-1.43,-1.21,0,*73
1507003685.19,38576,13.56,73730.3,4.17,-1.47,-1.21,0,*70
1507003686.4,38577,13.56,73730.8,4.17,-1.51,-1.25,0,*72
1507003687.61,38578,13.56,73730.5,4.17,-1.51,-1.21,0,*79
1507003688.85,38579,13.56,73734.3,4.17,-1.59,-1.35,0,*75
1507003690.06,38580,13.56,73734.8,4.19,-1.63,-1.35,0,*74
1507003691.3,38581,13.56,73740.0,4.17,-1.63,-1.35,0,*7B
1507003692.55,38582,13.56,73736.8,4.17,-1.63,-1.35,0,*78
1507003693.76,38583,13.56,73740.3,4.17,-1.59,-1.29,0,*7D
1507003694.97,38584,13.56,73738.8,4.17,-1.51,-1.29,0,*72
1507003696.18,38585,13.56,73744.3,4.17,-1.51,-1.29,0,*73
1507003697.38,38586,13.56,73742.5,4.17,-1.59,-1.25,0,*74
1507003698.6,38587,13.56,73740.0,4.17,-1.51,-1.21,0,*79
1507003699.81,38588,13.56,73736.8,4.17,-1.59,-1.29,0,*76
1507003701.02,38589,13.56,73738.8,4.17,-1.59,-1.25,0,*7B
1507003702.22,38590,13.56,73738.8,4.17,-1.51,-1.25,0,*7B
1507003703.44,38591,13.56,73738.5,4.17,-1.51,-1.21,0,*7E
1507003704.65,38592,13.56,73740.0,4.17,-1.59,-1.25,0,*71
1507003705.86,38593,13.56,73738.8,4.17,-1.51,-1.21,0,*7C
1507003707.07,38594,13.56,73734.0,4.17,-1.59,-1.25,0,*77
1507003708.3,38595,13.56,73732.8,4.17,-1.55,-1.09,0,*74
1507003709.54,38596,13.56,73734.0,4.19,-1.47,-1.09,0,*7A
1507003710.78,38597,13.56,73736.3,4.19,-1.47,-1.09,0,*7B
1507003712.02,38598,13.56,73736.8,4.19,-1.39,-1.01,0,*75
1507003713.25,38599,13.56,73736.5,4.17,-1.51,-1.09,0,*7C